Location: Baix
(44.7118°N, 4.7648°E)
Time: 00:15:53
(UTC+00:00)

Vanguard 3 - Pass Details

Date: 30 November 2020
Orbit: 508 x 3262 km, 33.3° (Epoch: 19 January)

Event Time Altitude Azimuth Distance (km) Brightness Sun altitude
Rises 01:21:33 0° 252° (WSW) 3,270 - -57.5°
Reaches altitude 10° 01:25:08 10° 224° (SW) 2,724 - -57.0°
Maximum altitude 01:28:08 13° 197° (SSW) 2,817 - -56.5°
Drops below altitude 10° 01:31:48 10° 171° (S) 3,497 - -56.0°
Sets 01:37:53 0° 149° (SSE) 5,178 - -55.0°
Exits shadow 01:37:57 - 149° (SSE) 5,194 11.3 -55.0°
